Location: Demmingen
(48.6757°N, 10.4375°E)
Time: 12:48:36
(UTC+00:00)

CZ-2C R/B - Pass Details

Date: 15 August 2024
Orbit: 782 x 869 km, 98.3° (Epoch: 15 September)

Event Time Altitude Azimuth Distance (km) Brightness Sun altitude
Exits shadow 00:55:08 43° 149° (SSE) 1,167 3.1 -24.1°
Maximum altitude 00:56:58 76° 73° (ENE) 868 2.7 -24.0°
Drops below altitude 10° 01:02:22 10° 349° (NNW) 2,437 5.8 -23.6°
Sets 01:04:42 0° 348° (NNW) 3,361 6.6 -23.4°
